Atlantic City, NJ

10:37 AM EST on November 12, 2019 (GMT -0500)
Atlantic City International

Weather History for KACY - October, 2019

Change the Weather History Date:

Sunday, October 20, 2019

  Actual Average Record
Temperature  
Mean Temperature 52 °F 55 °F  
Max Temperature 63 °F 65 °F 85 °F (1984)
Min Temperature 42 °F 44 °F 24 °F (1992)
Degree Days  
Heating Degree Days 12 11  
Month to date heating degree days 108 160  
Since 1 July heating degree days 119 222  
Cooling Degree Days 0 0  
Month to date cooling degree days 39 16  
Year to date cooling degree days 1408 1050  
Growing Degree Days 2 (Base 50)    
Moisture  
Dew Point 52 °F    
Average Humidity 89    
Maximum Humidity 94    
Minimum Humidity 72    
Precipitation  
Precipitation 1.18 in 0.11 in 4.06 in (1944)
Month to date precipitation 3.64 2.19  
Year to date precipitation 35.08 33.56  
Snow  
Snow 0.00 in 0.00 in T in (1940)
Month to date snowfall 0.0 0.0  
Since 1 July snowfall 0.0 0.0  
Since 1 September snowfall 0.0 0.0  
Snow Depth 0.00 in    
Sea Level Pressure  
Sea Level Pressure 29.93 in    
Wind  
Wind Speed 7 mph ()    
Max Wind Speed 23 mph    
Max Gust Speed 36 mph    
Visibility 5.1 miles    
Events Rain    
T = Trace of Precipitation, MM = Missing Value Source: Averaged Metar Reports

Daily Weather History Graph

Daily Weather History Graph

Search for Another Location

Airport or City:

Astronomy

Oct. 20, 2019 Rise Set
Actual Time 7:13 AM EDT 6:12 PM EDT
Civil Twilight 6:45 AM EDT 6:39 PM EDT
Nautical Twilight 6:14 AM EDT 7:10 PM EDT
Astronomical Twilight 5:43 AM EDT 7:42 PM EDT
Moon 11:19 PM EDT (10/20) 1:37 PM EDT (10/20)
Length of Visible Light 11h 53m
Length of Day
10h 59m
Waning Gibbous, 59% of the Moon is Illuminated
Oct 20
Waning Gibbous
Oct 21
Last Quarter
Oct 27
New
Nov 4
First Quarter
Nov 12
Full

Hourly Weather History & Observations

Time (EDT) Temp. Dew Point Humidity Pressure Visibility Wind Dir Wind Speed Gust Speed Precip Events Conditions
12:54 AM 46.9 °F 43.0 °F 86% 30.05 in 10.0 mi Calm Calm - N/A   Clear
1:54 AM 48.0 °F 43.0 °F 83% 30.04 in 10.0 mi Calm Calm - N/A   Clear
2:54 AM 45.0 °F 41.0 °F 86% 30.03 in 10.0 mi Calm Calm - N/A   Clear
3:54 AM 43.0 °F 39.9 °F 89% 30.01 in 10.0 mi Calm Calm - N/A   Clear
4:02 AM 43.0 °F 39.9 °F 89% 30.00 in 10.0 mi Calm Calm - N/A   Clear
4:54 AM 45.0 °F 41.0 °F 86% 30.00 in 10.0 mi Calm Calm - N/A   Clear
5:54 AM 44.1 °F 39.9 °F 85% 30.00 in 10.0 mi Calm Calm - N/A   Clear
6:54 AM 48.0 °F 43.0 °F 83% 30.00 in 10.0 mi ENE 3.5 mph - N/A   Clear
7:54 AM 50.0 °F 46.0 °F 86% 30.01 in 10.0 mi Calm Calm - N/A   Clear
8:54 AM 57.0 °F 53.1 °F 87% 30.02 in 10.0 mi East 3.5 mph - N/A   Clear
9:54 AM 62.1 °F 54.0 °F 75% 30.01 in 10.0 mi ESE 11.5 mph - N/A   Mostly Cloudy
10:54 AM 63.0 °F 55.9 °F 78% 30.01 in 10.0 mi ESE 8.1 mph - 0.01 in Rain Light Rain
11:54 AM 61.0 °F 55.9 °F 83% 30.01 in 6.0 mi East 5.8 mph - 0.03 in Rain Light Rain
12:07 PM 60.1 °F 55.9 °F 86% 30.01 in 2.0 mi East 4.6 mph - 0.02 in Rain Rain
12:54 PM 60.1 °F 57.0 °F 90% 29.98 in 2.0 mi Variable 6.9 mph - 0.11 in Rain Rain
1:47 PM 60.1 °F 57.0 °F 90% 29.95 in 3.0 mi NE 9.2 mph - 0.09 in Rain Rain
1:54 PM 60.1 °F 57.0 °F 90% 29.94 in 4.0 mi NE 11.5 mph - 0.10 in Rain Rain
2:13 PM 60.1 °F 57.0 °F 90% 29.93 in 3.0 mi NE 11.5 mph - 0.02 in Rain Light Rain
2:54 PM 59.0 °F 57.0 °F 93% 29.91 in 3.0 mi ENE 13.8 mph - 0.08 in Rain Rain
3:54 PM 59.0 °F 57.0 °F 93% 29.90 in 3.0 mi ENE 13.8 mph - 0.10 in Rain Rain
4:16 PM 59.0 °F 57.0 °F 93% 29.89 in 2.0 mi ENE 17.3 mph 25.3 mph 0.06 in Rain Heavy Rain
4:40 PM 59.0 °F 55.9 °F 90% 29.88 in 1.5 mi ENE 17.3 mph 29.9 mph 0.20 in Rain Heavy Rain
4:48 PM 57.2 °F 55.4 °F 94% 29.88 in 3.0 mi ENE 17.3 mph 25.3 mph 0.23 in Rain Rain
4:54 PM 57.9 °F 55.9 °F 93% 29.88 in 2.5 mi ENE 17.3 mph 31.1 mph 0.25 in Rain Heavy Rain
5:02 PM 57.9 °F 55.9 °F 93% 29.88 in 1.5 mi ENE 17.3 mph 28.8 mph 0.07 in Rain Heavy Rain
5:08 PM 57.9 °F 55.9 °F 93% 29.88 in 3.0 mi ENE 16.1 mph 27.6 mph 0.09 in Rain Rain
5:54 PM 57.9 °F 55.0 °F 90% 29.87 in 3.0 mi NE 16.1 mph 32.2 mph 0.18 in Rain Rain
6:54 PM 57.9 °F 55.0 °F 90% 29.86 in 6.0 mi NE 17.3 mph 29.9 mph 0.06 in Rain Light Rain
7:21 PM 57.0 °F 54.0 °F 89% 29.87 in 2.0 mi NE 20.7 mph 35.7 mph 0.01 in Rain Light Rain
7:54 PM 57.0 °F 54.0 °F 89% 29.87 in 2.5 mi NE 17.3 mph 27.6 mph 0.03 in Rain Light Rain
8:05 PM 57.0 °F 54.0 °F 89% 29.87 in 3.0 mi NE 23.0 mph 29.9 mph 0.01 in Rain Light Rain
8:22 PM 57.0 °F 54.0 °F 89% 29.87 in 2.5 mi NNE 16.1 mph 27.6 mph 0.02 in Rain Light Rain
8:41 PM 57.0 °F 54.0 °F 89% 29.87 in 3.0 mi NE 17.3 mph 27.6 mph 0.04 in Rain Light Rain
8:54 PM 57.0 °F 54.0 °F 89% 29.87 in 3.0 mi NNE 16.1 mph 25.3 mph 0.05 in Rain Light Rain
9:31 PM 55.9 °F 54.0 °F 93% 29.88 in 2.0 mi NNE 15.0 mph 21.9 mph 0.02 in Rain Light Rain
9:54 PM 55.9 °F 53.1 °F 90% 29.89 in 2.0 mi NNE 13.8 mph - 0.06 in Rain Rain
10:11 PM 55.9 °F 54.0 °F 93% 29.89 in 3.0 mi North 13.8 mph 21.9 mph 0.01 in Rain Light Rain
10:54 PM 55.0 °F 53.1 °F 93% 29.90 in 2.5 mi NNE 15.0 mph 23.0 mph 0.06 in Rain Heavy Rain
11:18 PM 55.0 °F 53.1 °F 93% 29.89 in 3.0 mi NNE 16.1 mph 25.3 mph 0.05 in Rain Light Rain
11:54 PM 55.0 °F 52.0 °F 89% 29.89 in 8.0 mi NNE 13.8 mph 24.2 mph 0.06 in   Overcast